Weather History for Newport, AR

Change the Weather History Date:

Tuesday, April 8, 2014

  Actual Average (KJBR) Record (KJBR)
Temperature  
Mean Temperature 48 °F 58 °F  
Max Temperature 54 °F 68 °F 87 °F (1924)
Min Temperature 41 °F 47 °F 28 °F (2007)
Degree Days  
Heating Degree Days 18 9  
Month to date heating degree days 76  
Since 1 July heating degree days 3496  
Cooling Degree Days 0 1  
Month to date cooling degree days 8  
Year to date cooling degree days 14  
Moisture  
Dew Point 43 °F    
Average Humidity 81    
Maximum Humidity 93    
Minimum Humidity 59    
Precipitation  
Precipitation 0.26 in 0.14 in 1.90 in (1919)
Month to date precipitation 1.17  
Year to date precipitation 12.82  
Snow  
Snow 0.00 in 0.00 in - ()
Month to date snowfall 0.0  
Since 1 July snowfall 4.8  
Snow Depth -    
Sea Level Pressure  
Sea Level Pressure 29.90 in    
Wind  
Wind Speed 7 mph (SSW)    
Max Wind Speed 14 mph    
Max Gust Speed -    
Visibility 9 miles    
Events Rain , Thunderstorm    
T = Trace of Precipitation, MM = Missing Value Source: NWS Daily Summary

Daily Weather History Graph

Daily Weather History Graph

Search for Another Location

Airport:

Trip Planner

Search our weather history database for the weather conditions in past years. The results will help you decide how hot, cold, wet, or windy it might be!

Date:

Astronomy

Apr. 08, 2014 Rise Set
Actual Time 6:41 AM CDT 7:32 PM CDT
Civil Twilight 6:15 AM CDT 7:58 PM CDT
Nautical Twilight 5:44 AM CDT 8:28 PM CDT
Astronomical Twilight 5:13 AM CDT 9:00 PM CDT
Moon 1:37 PM CDT (4/8) 2:42 AM CDT (4/8)
Length of Visible Light 13h 42m
Length of Day
12h 50m
Waxing Gibbous, 63% of the Moon is Illuminated
Apr 8
Waxing Gibbous
Apr 15
Full
Apr 22
Last Quarter
Apr 29
New
May 6
First Quarter

Hourly Weather History & Observations

Time (CDT) Temp. Windchill Dew Point Humidity Pressure Visibility Wind Dir Wind Speed Gust Speed Precip Events Conditions
12:56 AM 45.0 °F 41.8 °F 41.9 °F 89% 29.86 in 10.0 mi South 5.8 mph - N/A   Clear
1:56 AM 45.0 °F 40.1 °F 41.9 °F 89% 29.85 in 10.0 mi South 9.2 mph - N/A   Clear
2:56 AM 43.9 °F 39.3 °F 41.0 °F 90% 29.83 in 10.0 mi SE 8.1 mph - N/A   Clear
3:56 AM 43.9 °F 40.5 °F 41.0 °F 90% 29.83 in 10.0 mi South 5.8 mph - N/A   Clear
4:56 AM 41.9 °F 36.9 °F 39.9 °F 93% 29.81 in 10.0 mi SSW 8.1 mph - N/A   Clear
5:56 AM 43.9 °F - 41.9 °F 93% 29.82 in 10.0 mi Calm Calm - N/A   Clear
6:56 AM 43.9 °F 41.3 °F 41.9 °F 93% 29.83 in 10.0 mi SW 4.6 mph - N/A   Clear
7:56 AM 45.9 °F 44.6 °F 43.0 °F 90% 29.85 in 10.0 mi West 3.5 mph - N/A   Clear
8:56 AM 47.8 °F - 43.9 °F 86% 29.86 in 10.0 mi North 8.1 mph - N/A   Overcast
9:56 AM 52.9 °F - 45.0 °F 74% 29.87 in 10.0 mi NNW 4.6 mph - N/A   Overcast
10:56 AM 50.9 °F - 45.9 °F 83% 29.89 in 10.0 mi North 4.6 mph - 0.01 in Rain Light Rain
11:56 AM 52.9 °F - 45.9 °F 77% 29.89 in 10.0 mi Calm Calm - 0.00 in Rain Light Rain
12:30 PM 53.6 °F - 46.4 °F 77% 29.88 in 10.0 mi East 11.5 mph - 0.02 in Rain , Thunderstorm Light Thunderstorms and Rain
12:56 PM 52.0 °F - 47.8 °F 86% 29.90 in 5.0 mi West 5.8 mph - 0.08 in Rain , Thunderstorm Heavy Thunderstorms and Rain
1:06 PM 51.8 °F - 46.4 °F 82% 29.89 in 2.5 mi South 5.8 mph - 0.14 in Rain , Thunderstorm Heavy Thunderstorms and Rain
1:14 PM 50.0 °F - 46.4 °F 87% 29.88 in 7.0 mi SSE 6.9 mph - 0.15 in Rain , Thunderstorm Light Thunderstorms and Rain
1:56 PM 52.9 °F - 47.8 °F 83% 29.88 in 10.0 mi ESE 11.5 mph - 0.15 in   Mostly Cloudy
2:56 PM 54.0 °F - 45.9 °F 74% 29.87 in 10.0 mi SE 11.5 mph - N/A   Partly Cloudy
3:56 PM 54.0 °F - 46.9 °F 77% 29.88 in 10.0 mi SE 13.8 mph - N/A   Overcast
4:56 PM 52.9 °F - 45.9 °F 77% 29.92 in 10.0 mi East 8.1 mph - 0.02 in Rain Light Rain
5:56 PM 54.0 °F - 45.0 °F 72% 29.94 in 10.0 mi East 8.1 mph - 0.00 in   Scattered Clouds
6:56 PM 54.0 °F - 39.9 °F 59% 29.95 in 10.0 mi NW 12.7 mph - 0.00 in   Mostly Cloudy
7:56 PM 50.9 °F - 43.9 °F 77% 29.99 in 10.0 mi WNW 5.8 mph - N/A   Scattered Clouds
8:56 PM 48.9 °F - 43.9 °F 83% 30.03 in 10.0 mi WNW 6.9 mph - N/A   Clear
9:56 PM 47.8 °F - 38.8 °F 71% 30.05 in 10.0 mi NNW 9.2 mph - N/A   Clear
10:56 PM 47.8 °F - 37.9 °F 69% 30.07 in 10.0 mi NW 10.4 mph - N/A   Clear
11:56 PM 46.9 °F - 37.9 °F 71% 30.07 in 10.0 mi NW 9.2 mph - N/A   Clear